x

8721604 - Trident Pier, Fl (trdf1) Weather Station

12:18pm - Tue 23rd Oct 2018 All times are EDT. -4 hours from GMT.

  • Wind
    3mph, 5mph gusts
  • Sea Temp 82°f
  • Air Temp 81°f
  • Sea Pressure 1020.5mb
  • 8721604 - Trident Pier, Fl
  • 8721604 - Trident Pier, Fl

More Historic Weather Station data

Upgrade to MSW Pro to gain access to the past 30 days of data for over 8000 Wavebouys and Weather Stations around the globe.

Join

Comparision Forecast

View Surf forecast
   
Tue 10/23 12:18pm 3 5 mph 1020.5mb 82f 81f
12:12pm 2 5 mph 1020.6mb 82f 82f
12:06pm 5 6 mph 1020.7mb 82f 81f
12:00pm 2 3 mph 1020.9mb 82f 82f
11:54am 2 2 mph 1020.9mb 82f 81f
11:48am 2 5 mph 1021mb 82f 81f
11:42am 2 8 mph 1021mb 82f 81f
11:36am 3 6 mph 1021mb 82f 81f
11:30am  -  2 mph 1021.1mb 82f 82f
11:24am 2 3 mph 1021.1mb 82f 80f
11:18am 2 5 mph 1021.1mb 82f 80f
11:12am 3 5 mph 1021mb 82f 79f
11:06am 2 5 mph 1020.9mb 82f 79f
11:00am 3 5 mph 1021mb 82f 78f
10:54am 3 5 mph 1021.1mb 82f 78f
10:48am 3 6 mph 1021mb 82f 78f
10:42am 5 7 mph 1021.1mb 82f 78f
10:36am 5 6 mph 1021.1mb 82f 78f
10:30am 5 6 mph 1021.1mb 82f 78f
10:24am 1 5 mph 1020.9mb 82f 80f
10:18am 3 6 mph 1020.9mb 82f -
10:12am 5 6 mph 1020.9mb 82f 78f
10:06am 2 5 mph 1020.8mb 82f 78f
10:00am 2 5 mph 1020.8mb 82f 77f
9:54am 3 5 mph 1020.8mb 82f 76f
9:48am 3 5 mph 1020.9mb 82f 76f
9:42am 3 5 mph 1020.9mb 82f 76f
9:36am 3 5 mph 1020.9mb 82f 76f
9:30am 5 6 mph 1021mb 82f 75f
9:24am 6 9 mph 1021mb 82f 75f
9:18am 6 7 mph 1021mb 82f 75f
9:06am 5 6 mph 1020.8mb 82f 74f
9:00am 2 3 mph 1020.8mb 82f 74f
8:48am 3 6 mph 1020.7mb 82f 73f
8:42am 3 6 mph 1020.7mb 82f 73f
8:36am 5 6 mph 1020.7mb 82f 73f
8:30am 6 6 mph 1020.6mb 82f 73f
8:24am 5 6 mph 1020.5mb 82f 74f
8:18am 5 6 mph 1020.3mb 82f 74f
8:12am 5 6 mph 1020.2mb 82f 74f
8:06am 3 6 mph 1020.2mb 82f 75f
8:00am 3 6 mph 1020.1mb 82f 75f
7:54am 2 5 mph 1020.1mb 82f 74f
7:48am 3 5 mph 1020.1mb 82f 75f
7:42am 3 3 mph 1020.1mb 82f 75f
7:36am 1 3 mph 1020mb 82f 74f
7:30am 1 2 mph 1020mb 82f 74f
7:24am 2 8 mph 1020.1mb 82f 76f
7:18am 6 8 mph 1020.1mb 82f 76f
7:12am 5 5 mph 1020.1mb 82f 76f
7:06am 2 2 mph 1020.3mb 82f 75f
7:00am 2 3 mph 1020.2mb 82f 74f
6:54am 3 5 mph 1020.2mb 82f 74f
6:48am 3 6 mph 1020.1mb 82f 74f
6:42am 5 6 mph 1020.1mb 82f 74f
6:36am 3 9 mph 1020.1mb 82f 75f
6:30am 8 11 mph 1020mb 82f 76f
6:24am 5 6 mph 1019.9mb 82f 75f
6:18am 2 2 mph 1019.8mb 82f 75f
6:12am 2 3 mph 1019.8mb 82f 75f
6:06am 3 5 mph 1019.7mb 82f 76f
6:00am 3 3 mph 1019.7mb 82f 75f
5:54am 3 5 mph 1019.7mb 82f 75f
5:48am 3 5 mph 1019.6mb 82f 76f
5:42am 3 6 mph 1019.6mb 82f 76f
5:36am 5 6 mph 1019.5mb 82f 75f
5:30am 5 7 mph 1019.5mb 82f 75f
5:24am 5 8 mph 1019.6mb 82f 76f
5:18am 6 10 mph 1019.6mb 82f 76f
5:12am 7 11 mph 1019.6mb 82f 76f
5:06am 7 10 mph 1019.6mb 82f 76f
5:00am 8 10 mph 1019.7mb 82f 77f
4:54am 7 10 mph 1019.7mb 82f 77f
4:48am 7 9 mph 1019.7mb 82f 77f
4:42am 7 13 mph 1019.7mb 82f 77f
4:36am 8 11 mph 1019.6mb 82f 77f
4:30am 7 11 mph 1019.6mb 82f 77f
4:24am 8 13 mph 1019.5mb 82f 77f
4:18am 6 13 mph 1019.4mb 82f 77f
4:06am 8 13 mph 1019.5mb 82f 77f
4:00am 8 10 mph 1019.5mb 82f 77f
3:54am 9 13 mph 1019.4mb 82f 77f
3:48am 8 11 mph 1019.4mb 82f 77f
3:42am 8 11 mph 1019.5mb 82f 77f
3:36am 8 11 mph 1019.5mb 82f 77f
3:30am 7 11 mph 1019.6mb 82f 77f
3:24am 8 11 mph 1019.7mb 82f 77f
3:18am 8 11 mph 1019.8mb 82f 77f
3:12am 7 10 mph 1019.8mb 82f 76f
3:06am 8 11 mph 1019.8mb 82f 77f
3:00am 8 11 mph 1019.8mb 82f 77f
2:54am 8 11 mph 1020mb 82f 77f
2:48am 8 11 mph 1020mb 82f 77f
2:42am 8 11 mph 1020.1mb 82f 77f
2:36am 7 11 mph 1020.1mb 82f 76f
2:30am 8 11 mph 1020.2mb 82f 76f
2:24am 8 10 mph 1020.2mb 82f 76f
2:18am 8 13 mph 1020.3mb 82f 77f
2:12am 7 10 mph 1020.4mb 82f 76f
2:06am 7 11 mph 1020.3mb 82f 76f
2:00am 8 11 mph 1020.4mb 82f 77f
1:54am 7 11 mph 1020.4mb 82f 76f
1:48am 7 9 mph 1020.6mb 82f 76f
1:42am 8 11 mph 1020.6mb 82f 76f
1:36am 8 14 mph 1020.7mb 82f 76f
1:30am 8 11 mph 1020.7mb 82f 76f
1:24am 6 9 mph 1020.7mb 82f 76f
1:18am 7 14 mph 1020.8mb 82f 76f
1:12am 6 8 mph 1020.8mb 82f 76f
1:06am 6 13 mph 1020.9mb 82f 75f
1:00am 7 11 mph 1021mb 82f 76f
12:54am 8 11 mph 1021mb 82f 76f
12:48am 8 11 mph 1021.1mb - -
12:42am 8 13 mph 1021.1mb 82f 76f
12:36am 8 11 mph 1021.2mb 82f 76f
12:30am 7 13 mph 1021.3mb 82f 76f
12:24am 7 10 mph 1021.4mb 82f 75f
12:18am 7 10 mph 1021.4mb 82f 76f
12:12am 7 10 mph 1021.4mb 82f 75f
12:06am 7 13 mph 1021.4mb 82f 75f
12:00am 8 13 mph 1021.4mb 82f 75f
Mon 10/22 11:54pm 8 11 mph 1021.6mb 82f 75f
11:48pm 8 14 mph 1021.6mb 82f 75f
11:42pm 6 10 mph 1021.7mb 82f 74f
11:36pm 9 15 mph 1021.8mb 82f 74f
11:30pm 7 11 mph 1021.9mb 82f 74f
11:24pm 9 13 mph 1022mb 82f 73f
11:18pm 10 14 mph 1022mb 82f 74f
11:12pm 8 21 mph 1022mb 82f 75f
11:06pm 10 14 mph 1022mb 82f 76f
11:00pm 8 10 mph 1022mb 82f 77f
10:54pm 8 11 mph 1021.9mb 82f 77f
10:48pm 8 13 mph 1022mb 82f 76f
10:42pm 7 13 mph 1022mb 82f 76f
10:36pm 10 15 mph 1021.9mb 82f 77f
10:30pm 9 11 mph 1021.9mb 82f 76f
10:24pm 9 13 mph 1022mb 82f 77f
10:18pm 9 11 mph 1022mb 82f 77f
10:12pm 9 13 mph 1022mb 82f 77f
10:06pm 9 14 mph 1022mb 82f 77f
10:00pm 9 11 mph 1022mb 82f 76f
9:48pm 9 11 mph 1022mb 82f 77f
9:42pm 9 13 mph 1021.9mb 82f 77f
9:36pm 9 14 mph 1021.9mb 82f 77f
9:30pm 8 10 mph 1022mb 82f 76f
9:24pm 8 13 mph 1021.9mb 82f 77f
9:18pm 9 14 mph 1021.9mb 82f 77f
9:12pm 10 14 mph 1021.9mb 82f 77f
9:06pm 10 16 mph 1022mb 82f 77f
9:00pm 9 14 mph 1021.9mb 82f 77f
8:54pm 11 16 mph 1021.9mb 82f 77f
8:48pm 10 17 mph 1021.8mb 82f 77f
8:42pm 9 15 mph 1021.6mb 82f 77f
8:36pm 11 15 mph 1021.6mb 82f 77f
8:30pm 10 16 mph 1021.5mb 82f 77f
8:24pm 13 17 mph 1021.6mb 82f 77f
8:18pm 10 15 mph 1021.5mb 82f 77f
8:12pm 13 16 mph 1021.5mb 83f 77f
8:06pm 11 16 mph 1021.6mb 83f 77f
8:00pm 13 17 mph 1021.5mb 83f 77f
7:18pm 10 14 mph 1021.3mb 83f 77f
7:12pm 10 15 mph 1021.4mb 83f 77f
7:06pm 11 15 mph 1021.4mb 83f 77f
7:00pm 7 10 mph 1021.3mb 83f 77f
6:18pm 9 11 mph 1021.4mb 83f 77f
6:12pm 8 13 mph 1021.4mb 83f 77f
6:06pm 6 10 mph 1021.4mb 83f 77f
6:00pm 7 10 mph 1021.4mb 83f 77f
5:54pm 9 13 mph 1021.3mb 83f 77f
5:48pm 9 13 mph 1021.3mb 83f 77f
5:42pm 8 10 mph 1021.4mb 83f 77f
5:36pm 9 13 mph 1021.5mb 83f 78f
5:30pm 7 9 mph 1021.5mb 83f 78f
5:24pm 7 11 mph 1021.4mb 83f 78f
5:18pm 8 11 mph 1021.4mb 83f 78f
5:12pm 6 11 mph 1021.4mb 83f 77f
5:06pm 8 10 mph 1021.3mb 83f 77f
5:00pm 9 11 mph 1021.4mb 83f 78f
4:54pm 9 13 mph 1021.4mb 83f 78f
4:48pm 7 11 mph 1021.3mb 83f 79f
4:42pm 8 11 mph 1021.4mb 83f 80f
4:36pm 9 11 mph 1021.4mb 83f 80f
4:30pm 9 13 mph 1021.5mb 83f 80f
4:24pm 7 11 mph 1021.6mb 83f 79f
4:18pm 8 10 mph 1021.5mb 83f 78f
4:12pm 8 14 mph 1021.6mb 83f 79f
4:06pm 9 13 mph 1021.5mb 83f 79f
4:00pm 8 14 mph 1021.5mb 83f 80f
3:54pm 9 13 mph 1021.5mb 83f 79f
3:48pm 8 13 mph 1021.5mb 83f 80f
3:42pm 10 14 mph 1021.4mb 83f 79f
3:36pm 11 16 mph 1021.5mb 83f 80f
3:30pm 10 14 mph 1021.6mb 83f 80f
3:24pm 11 14 mph 1021.6mb 83f 80f
3:18pm 9 14 mph 1021.6mb 83f 80f
3:12pm 10 15 mph 1021.5mb 83f 79f
3:06pm 10 14 mph 1021.5mb 83f 79f
3:00pm 11 16 mph 1021.4mb 83f 78f
2:54pm 11 16 mph 1021.4mb 83f 79f
2:48pm 11 16 mph 1021.3mb 83f 79f
2:42pm 13 17 mph 1021.3mb 83f 78f
2:36pm 10 15 mph 1021.5mb 83f 79f
2:30pm 11 17 mph 1021.7mb 83f 80f
2:24pm 14 18 mph 1021.6mb 83f 80f
2:18pm 13 18 mph 1021.7mb 83f 80f
2:12pm 14 17 mph 1021.8mb 83f 80f
2:06pm 14 18 mph 1021.9mb 83f 81f
2:00pm 14 20 mph 1022mb 83f 80f
1:54pm 14 18 mph 1022.1mb 83f 79f
1:48pm 13 18 mph 1022.2mb 83f 77f
1:42pm 11 16 mph 1022.3mb 83f 78f
1:36pm 13 18 mph 1022.4mb 83f 78f
1:30pm 9 17 mph 1022.4mb 83f 79f
1:24pm 10 16 mph 1022.4mb 83f 79f
1:18pm 13 17 mph 1022.5mb 83f 79f
1:12pm 11 16 mph 1022.5mb 83f 81f
1:06pm 11 17 mph 1022.6mb 83f 80f
1:00pm 11 17 mph 1022.6mb 83f 80f
12:54pm 11 17 mph 1022.7mb 83f 81f
12:48pm 13 18 mph 1022.7mb 83f 81f
12:42pm 13 16 mph 1022.7mb 83f 79f
12:36pm 9 18 mph 1022.9mb 83f 80f
12:30pm 11 18 mph 1023mb 83f 80f
12:24pm 13 17 mph 1023mb 83f 78f
12:18pm 14 17 mph 1023.1mb 83f 78f
12:12pm 11 20 mph 1023.2mb 83f 79f
12:06pm 13 22 mph 1023.2mb 83f 80f
12:00pm 15 18 mph 1023.2mb 83f 79f
11:54am 13 21 mph 1023.3mb 83f 80f
11:48am 14 17 mph 1023.3mb 83f 79f
11:42am 13 18 mph 1023.4mb 83f 79f
11:36am 14 22 mph 1023.4mb 83f 79f
11:30am 15 18 mph 1023.4mb 83f 79f
11:24am 15 18 mph 1023.5mb 83f 79f
11:18am 10 18 mph 1023.4mb 83f 78f
11:12am 11 15 mph 1023.4mb 83f 78f
11:06am 11 17 mph 1023.4mb 83f 79f
11:00am 11 20 mph 1023.4mb 83f 79f
10:54am 11 17 mph 1023.3mb 83f 79f
10:48am 10 18 mph 1023.3mb 83f 78f
10:42am 11 15 mph 1023.3mb 83f 78f
10:36am 11 14 mph 1023.3mb 83f 78f
10:30am 13 17 mph 1023.4mb 83f 78f
10:24am 9 17 mph 1023.4mb 83f 79f
10:18am 11 17 mph 1023.3mb 83f 78f
10:12am 11 16 mph 1023.3mb 83f 78f
10:06am 13 16 mph 1023.3mb 83f 78f
10:00am 11 15 mph 1023.3mb 83f 78f
9:54am 10 16 mph 1023.3mb 83f 77f
9:48am 10 15 mph 1023.2mb 83f 78f
9:42am 14 18 mph 1023.1mb 83f 77f
9:36am 7 13 mph 1023mb 83f 76f
9:30am 10 15 mph 1022.9mb 83f 77f
9:24am 11 15 mph 1022.9mb 83f 76f
9:18am 10 15 mph 1022.8mb 83f 76f
9:12am 10 17 mph 1022.8mb 83f 76f
9:06am 10 15 mph 1022.7mb 83f 77f
9:00am 10 14 mph 1022.6mb 83f 76f
8:54am 14 16 mph 1022.5mb 83f 76f
8:48am 13 17 mph 1022.4mb 83f 76f
8:42am 11 16 mph 1022.3mb 83f 74f
8:36am 11 16 mph 1022.3mb 83f 74f
8:30am 11 18 mph 1022.2mb 83f 74f
8:24am 10 15 mph 1022.2mb 83f 74f
8:18am 13 17 mph 1022mb 83f 74f
8:12am 10 15 mph 1021.9mb 83f 74f
8:06am 8 16 mph 1021.8mb 83f 74f
8:00am 10 18 mph 1021.8mb 83f 74f
7:54am 11 16 mph 1021.8mb 83f 74f
7:48am 11 15 mph 1021.7mb 83f 74f
7:42am 10 16 mph 1021.6mb 83f 73f
7:36am 10 20 mph 1021.6mb 83f 73f
7:30am 11 16 mph 1021.4mb 83f 73f
7:24am 10 16 mph 1021.4mb 83f 73f
7:18am 10 15 mph 1021.4mb 83f 73f
7:12am 9 14 mph 1021.4mb 83f 73f
7:06am 9 14 mph 1021.3mb 83f 72f
7:00am 10 15 mph 1021.2mb 83f 72f
6:18am 11 16 mph 1021mb 83f 73f
6:12am 11 15 mph 1020.9mb 83f 73f
6:06am 10 17 mph 1020.8mb 83f 72f
6:00am 14 18 mph 1020.8mb 83f 72f
5:54am 10 17 mph 1020.7mb 83f 72f
5:48am 9 15 mph 1020.6mb 83f 71f
5:42am 13 18 mph 1020.6mb 83f 72f
5:36am 13 16 mph 1020.7mb 83f 72f
5:30am 11 15 mph 1020.6mb 83f 71f
5:24am 9 15 mph 1020.6mb 83f 71f
5:18am 10 17 mph 1020.5mb 83f 72f
5:12am 14 16 mph 1020.4mb 83f 73f
5:06am 11 15 mph 1020.3mb 83f 73f
5:00am 11 15 mph 1020.3mb 83f 72f
4:54am 10 15 mph 1020.3mb 83f 72f
4:48am 13 17 mph 1020.3mb 83f 72f
4:42am 10 14 mph 1020.3mb 83f 72f
4:36am 9 14 mph 1020.3mb 83f 71f
4:30am 8 11 mph 1020.3mb 83f 71f
4:24am 8 11 mph 1020.3mb 83f 70f
4:18am 9 11 mph 1020.3mb 83f 70f
4:12am 7 10 mph 1020.3mb 83f 70f
4:06am 8 11 mph 1020.3mb 83f 70f
4:00am 10 13 mph 1020.4mb 83f 71f
3:54am 7 13 mph 1020.4mb 83f 70f
3:48am 10 15 mph 1020.4mb 83f 71f
3:42am 10 13 mph 1020.4mb 83f 71f
3:36am 8 15 mph 1020.4mb 83f 71f
3:30am 9 14 mph 1020.4mb 83f 71f
3:24am 8 15 mph 1020.4mb 83f 71f
3:18am 10 14 mph 1020.4mb 83f 71f
3:12am 8 13 mph 1020.5mb 83f 71f
3:06am 9 15 mph 1020.4mb 83f 71f
3:00am 9 14 mph 1020.4mb 83f 71f